Location: Newark
(51.0500°N, 12.4500°E)
Time: 20:08:47
(UTC+00:00)

Tiros 1 - Visible Passes

Search period start: 16 February 2020 00:00
Search period end: 26 February 2020 00:00
Orbit: 630 x 664 km, 48.4° (Epoch: 16 February)

Date Brightness Start Highest point End Pass type
(mag) Time Alt. Az. Time Alt. Az. Time Alt. Az.
16 Feb 8.8 03:35:44 23° SSE 03:36:11 23° SSE 03:39:50 10° E visible
16 Feb 7.7 05:13:25 11° WSW 05:17:47 53° SSE 05:22:18 10° E visible
17 Feb 8.1 04:00:47 32° S 04:01:54 37° SSE 04:06:09 10° E visible
17 Feb 7.5 05:39:09 10° WSW 05:43:43 63° S 05:48:18 10° E visible
18 Feb 9.5 02:48:06 17° ESE 02:48:06 17° ESE 02:49:44 10° E visible
18 Feb 7.6 04:25:45 30° SW 04:27:45 52° SSE 04:32:15 10° E visible
19 Feb 8.6 03:13:01 30° SE 03:13:01 30° SE 03:16:05 10° E visible
19 Feb 7.4 04:50:40 21° WSW 04:53:41 62° S 04:58:16 10° E visible
20 Feb 7.6 03:37:54 50° SSE 03:37:54 50° SSE 03:42:12 10° E visible
20 Feb 7.4 05:15:33 13° W 05:19:39 63° S 05:24:14 10° ESE visible
21 Feb 9.8 02:25:05 15° E 02:25:05 15° E 02:26:02 10° E visible
21 Feb 7.3 04:02:45 50° SW 04:03:39 61° S 04:08:13 10° E visible
22 Feb 9.0 02:49:56 26° ESE 02:49:56 26° ESE 02:52:09 10° E visible
22 Feb 7.2 04:27:35 32° WSW 04:29:37 63° S 04:34:11 10° ESE visible
23 Feb 7.9 03:14:46 45° ESE 03:14:46 45° ESE 03:18:10 10° E visible
23 Feb 7.4 04:52:25 19° W 04:55:34 55° SSW 05:00:05 10° ESE visible
24 Feb 10.1 02:01:57 11° E 02:01:57 11° E 02:02:06 10° E visible
24 Feb 7.1 03:39:36 64° S 03:39:36 64° S 03:44:09 10° ESE visible
24 Feb 7.9 05:17:16 11° W 05:21:26 40° SSW 05:25:45 10° SE visible
25 Feb 9.5 02:26:48 19° E 02:26:48 19° E 02:28:07 10° E visible
25 Feb 7.3 04:04:28 44° WSW 04:05:32 56° SSW 04:10:03 10° ESE visible
